**Search for your results by entering your last name OR bib number OR search by age group to compare your stats with others
Individual Search
 
Bib:
Last Name:
All Participants Search
 
Top Ten Women
PlaceNameTimePace
1.Leana Elliott21:54.917:01/M
2.Leah Harvey22:28.717:12/M
3.Alyssa Cisneros23:51.767:39/M
4.Dorothy Rusch23:53.527:39/M
5.Marithza Calderon24:22.487:49/M
6.Stephanie Spears24:33.607:52/M
7.Mandy Brown24:44.357:56/M
8.Nicki Hagel24:44.547:56/M
9.Kaylee Branch25:23.868:08/M
10.Allison Atkinson25:28.828:10/M
Top Ten Men
PlaceNameTimePace
1.Will Maraggia17:50.995:43/M
2.Casey Roth18:34.615:57/M
3.Derrick Carroll18:45.836:01/M
4.Jason Lewis19:16.126:11/M
5.Felix Durna20:41.676:38/M
6.Brandon Strelczyk22:04.827:04/M
7.Glen Norton22:07.197:05/M
8.Jim Drzozowski22:18.507:09/M
9.Brad Madigan22:20.367:09/M
10.Arthur Hernandez22:47.287:18/M
Contact us for results help

Gallery of Events

Contact Us

Address:
172 Trademark Drive
Buda, Texas 78610

Phone:
(512) 386 - 7966

Email:
info@cadencesports.com